"Pseudo-MPEC" for X76599

Created 2021 Dec 9 3:07:23 UT using Find_Orb

Click here for an explanation of pseudo-MPECs

 
 Astrometry: 
     X76599   C2021 11 184ix#NGra5WeGvU;UgAstrometry=`M\*%ivZ#8nFjLtkx\'/!(+UD29
     X76599   C2021 11 187G09hMp(Uredacted;R2clickZv.;yFcEkit\h0=weE)@6**hereD29
     X76599   C2021 11 18PL2FTgRf!(t'tZ'eIU7??fori^?L$U0b+\N+joexplanation8VqD29

Station data:
(D29) Purple Mountain Observatory, XuYi Station  (N32.734366 E118.463900)
   China.  Observers H. B. Zhao, B. Li, G. Zhaori, R. Q. Hong, L. F. Hu.
   Measurers H. B. Zhao, B. Li. H. Lu, G. Zhaori. 1.04-m f/1.8 Schmidt + CCD.

Orbital elements:  X76599
   Perihelion 2021 Aug 29.351914 +/- 71.8903 TT =  8:26:45 (JD 2459455.851914)
Epoch 2021 Nov 19.0 TT = JDT 2459537.5   Earth MOID: 0.5127   Ma: 0.0322
M  33.87662536 +/- 85.428199        (J2000 ecliptic)          AutoNEOCP
n   0.41491021 +/- 0.530422         Peri.   96.46940 +/- 118.52385
a   1.78032775 +/- 1.51729          Node   284.90598 +/- 27.583496
e   0.2842664 +/- 0.234579          Incl.   31.36291 +/- 31.723009
P   2.38/867.64d           H 18.5   G  0.15   U 12.3  SR
q 1.27424038 +/- 0.527331    Q 2.28641512 +/- 27.5604
From 3 observations 2021 Nov. 18 (19.4 min); mean residual 0".22
Residuals in arcseconds: 
211118 D29  .22+  .01-    211118 D29  .44-  .03+    211118 D29  .22+  .02-    

Ephemerides (geocentric):
Date (UTC) HH   RA              Dec         delta   r     elong  mag " sig PA
---- -- -- --  -------------   -----------  ------ ------ -----  --- ---- ---
2021 12 09 03  08 32 05.498   +35 18 18.14  .63676 1.4950 133.2 19.7  70d 149
2021 12 09 04  08 32 00.135   +35 17 09.77  .63659 1.4951 133.3 19.7  70d 149
2021 12 09 05  08 31 54.763   +35 16 01.34  .63641 1.4953 133.4 19.7  70d 149
2021 12 09 06  08 31 49.384   +35 14 52.86  .63624 1.4954 133.4 19.7  70d 149
2021 12 09 07  08 31 43.998   +35 13 44.32  .63607 1.4956 133.5 19.7  70d 149
2021 12 09 08  08 31 38.604   +35 12 35.73  .63589 1.4957 133.5 19.7  70d 149
2021 12 09 09  08 31 33.202   +35 11 27.09  .63572 1.4959 133.6 19.7  70d 149
2021 12 09 10  08 31 27.793   +35 10 18.39  .63555 1.4960 133.6 19.7  70d 149
2021 12 09 11  08 31 22.376   +35 09 09.64  .63538 1.4962 133.7 19.7  70d 149
2021 12 09 12  08 31 16.951   +35 08 00.83  .63521 1.4963 133.8 19.7  70d 149
2021 12 09 13  08 31 11.519   +35 06 51.98  .63504 1.4965 133.8 19.7  70d 149
2021 12 09 14  08 31 06.079   +35 05 43.06  .63487 1.4966 133.9 19.7  70d 149
2021 12 09 15  08 31 00.632   +35 04 34.10  .63470 1.4968 133.9 19.7  70d 149
2021 12 09 16  08 30 55.177   +35 03 25.07  .63453 1.4969 134.0 19.7  70d 149
2021 12 09 17  08 30 49.715   +35 02 16.00  .63436 1.4971 134.0 19.7  70d 149
2021 12 09 18  08 30 44.245   +35 01 06.87  .63419 1.4972 134.1 19.6  70d 149
2021 12 09 19  08 30 38.767   +34 59 57.69  .63402 1.4974 134.2 19.6  70d 149
2021 12 09 20  08 30 33.283   +34 58 48.45  .63385 1.4975 134.2 19.6  70d 149
2021 12 09 21  08 30 27.790   +34 57 39.16  .63368 1.4977 134.3 19.6  70d 149
2021 12 09 22  08 30 22.290   +34 56 29.81  .63351 1.4978 134.3 19.6  70d 149
2021 12 09 23  08 30 16.783   +34 55 20.41  .63335 1.4980 134.4 19.6  71d 149
2021 12 10 00  08 30 11.268   +34 54 10.96  .63318 1.4981 134.5 19.6  71d 149
2021 12 10 01  08 30 05.746   +34 53 01.45  .63301 1.4983 134.5 19.6  71d 149
2021 12 10 02  08 30 00.216   +34 51 51.88  .63284 1.4984 134.6 19.6  71d 149
2021 12 10 03  08 29 54.679   +34 50 42.27  .63268 1.4986 134.6 19.6  71d 149
2021 12 10 04  08 29 49.134   +34 49 32.59  .63251 1.4987 134.7 19.6  71d 149
2021 12 10 05  08 29 43.582   +34 48 22.87  .63235 1.4989 134.8 19.6  71d 149
2021 12 10 06  08 29 38.023   +34 47 13.09  .63218 1.4990 134.8 19.6  71d 149
2021 12 10 07  08 29 32.456   +34 46 03.25  .63201 1.4992 134.9 19.6  71d 149
2021 12 10 08  08 29 26.882   +34 44 53.36  .63185 1.4993 134.9 19.6  71d 149
2021 12 10 09  08 29 21.301   +34 43 43.41  .63169 1.4995 135.0 19.6  71d 149
2021 12 10 10  08 29 15.712   +34 42 33.41  .63152 1.4996 135.0 19.6  71d 149
2021 12 10 11  08 29 10.116   +34 41 23.36  .63136 1.4998 135.1 19.6  71d 149
2021 12 10 12  08 29 04.512   +34 40 13.25  .63119 1.4999 135.2 19.6  71d 149
2021 12 10 13  08 28 58.902   +34 39 03.09  .63103 1.5001 135.2 19.6  71d 149
2021 12 10 14  08 28 53.284   +34 37 52.87  .63087 1.5002 135.3 19.6  71d 149
2021 12 10 15  08 28 47.658   +34 36 42.60  .63070 1.5004 135.3 19.6  71d 149
2021 12 10 16  08 28 42.026   +34 35 32.27  .63054 1.5005 135.4 19.6  71d 149
2021 12 10 17  08 28 36.386   +34 34 21.89  .63038 1.5007 135.5 19.6  71d 149
2021 12 10 18  08 28 30.738   +34 33 11.45  .63022 1.5008 135.5 19.6  71d 149
2021 12 10 19  08 28 25.084   +34 32 00.95  .63006 1.5010 135.6 19.6  71d 149
2021 12 10 20  08 28 19.422   +34 30 50.41  .62990 1.5011 135.6 19.6  71d 149
2021 12 10 21  08 28 13.754   +34 29 39.80  .62973 1.5013 135.7 19.6  71d 149
2021 12 10 22  08 28 08.077   +34 28 29.15  .62957 1.5014 135.8 19.6  71d 149
2021 12 10 23  08 28 02.394   +34 27 18.44  .62941 1.5016 135.8 19.6  71d 149
2021 12 11 00  08 27 56.704   +34 26 07.67  .62925 1.5017 135.9 19.6  71d 149
2021 12 11 01  08 27 51.006   +34 24 56.85  .62909 1.5019 135.9 19.6  71d 149
2021 12 11 02  08 27 45.301   +34 23 45.97  .62894 1.5020 136.0 19.6  71d 149